Total_Precipitation_Accumulation
1.44 1.65 1.97 2.37 2.66 2.97 3.29 3.57 3.71 3.72 3.83 4.12 4.20 3.98 3.76 3.59 3.20 2.90 2.85 2.77 2.62 2.56 2.44 2.24 2.27 2.38 2.27 2.16 2.25 2.29 2.25 2.14 1.99 1.92 1.75 1.64 1.53 1.41 1.18 1.01 0.97 0.98 1.01
1.21 1.40 1.67 1.99 2.33 2.64 3.05 3.35 3.57 3.77 3.70 3.62 3.82 3.87 3.80 3.66 3.45 3.17 3.07 2.89 2.73 2.64 2.63 2.57 2.46 2.53 2.49 2.38 2.31 2.35 2.42 2.32 2.26 2.22 2.14 1.95 1.82 1.53 1.27 1.12 1.03 1.01 1.05
1.04 1.19 1.42 1.68 1.99 2.32 2.66 2.99 3.28 3.57 3.78 3.77 3.97 4.09 4.08 3.84 3.56 3.24 3.02 2.88 2.80 2.74 2.64 2.65 2.64 2.62 2.65 2.55 2.45 2.38 2.39 2.40 2.32 2.26 2.39 2.13 1.79 1.54 1.38 1.19 1.10 1.07 1.08
0.96 1.06 1.22 1.44 1.70 2.04 2.31 2.59 2.99 3.34 3.64 3.82 3.83 3.86 3.94 3.71 3.31 3.15 3.19 3.05 2.82 2.72 2.71 2.65 2.63 2.66 2.63 2.57 2.60 2.60 2.46 2.46 2.45 2.36 2.19 1.98 1.72 1.63 1.52 1.36 1.27 1.18 1.12
0.92 0.99 1.09 1.26 1.48 1.80 2.10 2.29 2.60 2.96 3.24 3.32 3.38 3.54 3.66 3.67 3.47 3.33 3.27 3.19 2.92 2.66 2.58 2.59 2.56 2.55 2.57 2.57 2.60 2.64 2.66 2.57 2.47 2.38 2.28 2.15 1.89 1.70 1.66 1.54 1.45 1.45 1.31
0.93 1.01 1.09 1.21 1.31 1.50 1.81 2.08 2.22 2.48 2.74 2.88 2.98 3.13 3.17 3.32 3.36 3.26 3.25 3.25 3.05 2.75 2.57 2.50 2.45 2.43 2.46 2.47 2.52 2.60 2.68 2.63 2.48 2.35 2.19 2.13 2.01 1.83 1.79 1.64 1.47 1.51 1.44
1.07 1.15 1.17 1.27 1.35 1.45 1.54 1.81 2.00 2.13 2.35 2.57 2.72 2.76 2.88 2.98 3.05 3.02 3.04 3.15 3.14 2.84 2.61 2.51 2.48 2.42 2.35 2.41 2.57 2.66 2.66 2.65 2.54 2.45 2.33 2.19 2.01 1.91 1.95 1.92 1.71 1.59 1.47
1.23 1.29 1.31 1.44 1.51 1.55 1.57 1.68 1.79 1.82 1.95 2.17 2.38 2.48 2.64 2.69 2.66 2.63 2.62 2.69 2.82 2.84 2.72 2.63 2.57 2.53 2.47 2.42 2.46 2.51 2.54 2.56 2.51 2.40 2.32 2.23 2.08 2.04 2.04 2.05 2.14 2.05 1.75
1.30 1.40 1.46 1.52 1.50 1.47 1.56 1.65 1.75 1.72 1.68 1.77 1.94 2.09 2.25 2.35 2.32 2.30 2.25 2.30 2.42 2.56 2.68 2.67 2.60 2.49 2.45 2.43 2.43 2.38 2.31 2.36 2.38 2.32 2.22 2.12 1.97 1.98 2.00 1.99 2.10 2.31 2.15
1.21 1.35 1.36 1.36 1.42 1.44 1.50 1.62 1.69 1.75 1.67 1.64 1.72 1.84 1.92 1.99 2.02 2.06 2.05 2.00 2.05 2.11 2.28 2.46 2.51 2.45 2.38 2.34 2.35 2.31 2.20 2.20 2.13 2.08 2.09 2.04 1.91 1.82 1.85 1.94 1.99 2.08 2.18
1.05 1.13 1.15 1.18 1.25 1.31 1.42 1.57 1.67 1.69 1.61 1.66 1.68 1.66 1.73 1.88 1.89 1.84 1.86 1.90 1.88 1.85 1.94 2.07 2.22 2.26 2.25 2.24 2.24 2.16 2.09 2.07 2.03 1.97 1.93 1.87 1.82 1.84 1.80 1.81 1.89 1.98 2.05
0.95 0.97 0.97 0.96 0.97 1.05 1.15 1.26 1.38 1.44 1.46 1.52 1.63 1.58 1.54 1.72 1.82 1.75 1.71 1.75 1.76 1.66 1.66 1.73 1.82 1.91 1.94 1.94 1.97 1.96 1.91 1.89 1.87 1.83 1.83 1.79 1.76 1.75 1.74 1.78 1.81 1.84 1.89
0.77 0.76 0.77 0.82 0.81 0.85 0.95 1.07 1.15 1.24 1.35 1.41 1.48 1.47 1.46 1.52 1.60 1.65 1.63 1.62 1.68 1.64 1.54 1.51 1.58 1.62 1.66 1.69 1.69 1.69 1.71 1.69 1.66 1.68 1.70 1.69 1.76 1.80 1.74 1.71 1.68 1.65 1.65
0.62 0.59 0.59 0.62 0.65 0.70 0.83 0.94 0.98 1.03 1.19 1.29 1.30 1.30 1.34 1.34 1.35 1.39 1.43 1.43 1.44 1.51 1.54 1.43 1.36 1.41 1.47 1.54 1.60 1.61 1.60 1.61 1.62 1.62 1.63 1.63 1.66 1.67 1.67 1.71 1.69 1.64 1.65
0.48 0.45 0.47 0.50 0.53 0.56 0.63 0.77 0.90 0.96 1.08 1.23 1.27 1.27 1.26 1.26 1.23 1.23 1.20 1.20 1.25 1.33 1.42 1.42 1.35 1.28 1.33 1.42 1.50 1.56 1.59 1.58 1.61 1.61 1.60 1.62 1.72 1.77 1.73 1.70 1.69 1.75 1.86
0.45 0.40 0.39 0.40 0.43 0.48 0.53 0.63 0.80 0.91 0.98 1.10 1.18 1.21 1.21 1.21 1.21 1.17 1.14 1.10 1.13 1.22 1.33 1.39 1.42 1.39 1.39 1.64 1.65 1.57 1.58 1.60 1.59 1.57 1.52 1.51 1.59 1.59 1.65 1.67 1.65 1.76 1.92
0.45 0.43 0.42 0.40 0.40 0.42 0.51 0.62 0.74 0.82 0.87 0.93 1.01 1.07 1.09 1.13 1.15 1.15 1.17 1.21 1.22 1.26 1.35 1.43 1.49 1.50 1.56 1.72 1.64 1.63 1.51 1.50 1.51 1.48 1.44 1.40 1.36 1.41 1.29 1.40 1.48 1.51 1.65
0.42 0.42 0.44 0.42 0.40 0.41 0.48 0.60 0.74 0.85 0.92 0.98 1.00 0.99 1.04 1.09 1.15 1.23 1.31 1.39 1.44 1.45 1.51 1.57 1.59 1.60 1.63 1.69 1.61 1.63 1.44 1.37 1.34 1.28 1.21 1.18 1.14 1.16 1.23 1.29 1.37 1.28 1.24
0.45 0.47 0.49 0.49 0.47 0.48 0.50 0.59 0.74 0.86 0.94 1.02 1.07 1.07 1.12 1.22 1.27 1.39 1.47 1.50 1.58 1.56 1.52 1.50 1.50 1.48 1.47 1.50 1.46 1.46 1.30 1.24 1.18 1.11 1.06 1.06 1.02 1.18 1.36 1.36 1.38 1.19 1.07
0.48 0.50 0.51 0.50 0.53 0.57 0.60 0.69 0.84 0.94 1.03 1.12 1.21 1.21 1.22 1.29 1.33 1.37 1.37 1.36 1.37 1.34 1.27 1.23 1.19 1.16 1.14 1.21 1.23 1.26 1.21 1.17 1.05 0.99 0.98 1.09 1.08 1.24 1.39 1.33 1.33 1.27 1.06
0.58 0.60 0.60 0.63 0.70 0.75 0.80 0.91 1.04 1.17 1.22 1.25 1.31 1.29 1.24 1.24 1.21 1.18 1.13 1.08 1.06 1.03 0.99 0.96 0.92 0.88 0.88 0.95 1.01 1.10 1.14 1.21 1.15 1.02 0.93 0.92 1.13 1.28 1.38 1.34 1.25 1.27 1.27
0.55 0.61 0.68 0.72 0.76 0.85 0.94 1.05 1.19 1.27 1.21 1.16 1.15 1.11 1.01 0.98 0.93 0.91 0.93 0.92 0.90 0.94 0.95 0.91 0.88 0.81 0.78 0.82 0.88 0.98 1.10 1.18 1.19 1.09 0.94 0.93 1.14 1.21 1.25 1.25 1.28 1.38 1.40
0.44 0.50 0.58 0.65 0.68 0.76 0.80 0.89 0.94 0.92 0.91 0.90 0.91 0.90 0.87 0.84 0.84 0.82 0.85 0.90 0.89 0.89 0.90 0.89 0.91 0.89 0.81 0.84 0.95 0.99 1.10 1.19 1.16 1.08 1.11 1.16 1.19 1.17 1.11 1.14 1.25 1.28 1.24
0.40 0.42 0.45 0.50 0.57 0.62 0.66 0.69 0.69 0.69 0.73 0.80 0.84 0.86 0.86 0.84 0.84 0.86 0.84 0.88 0.91 0.92 0.90 0.88 0.91 0.89 0.85 0.84 0.91 1.02 1.11 1.18 1.21 1.19 1.16 1.14 1.13 1.14 1.12 1.09 1.09 1.11 1.17
0.40 0.41 0.48 0.53 0.61 0.61 0.65 0.68 0.71 0.71 0.76 0.81 0.87 0.90 0.92 0.88 0.88 0.88 0.90 0.92 0.94 1.01 1.11 1.07 1.01 1.04 1.01 0.95 1.09 1.21 1.22 1.25 1.29 1.33 1.22 1.10 1.05 1.09 1.09 1.05 1.02 1.06 1.16
0.41 0.42 0.45 0.52 0.60 0.60 0.62 0.68 0.74 0.78 0.82 0.84 0.87 0.89 0.92 0.92 0.90 0.86 0.90 0.95 0.97 1.00 1.02 1.03 1.05 1.01 1.04 1.09 1.17 1.21 1.24 1.31 1.40 1.46 1.28 1.06 0.99 1.00 0.99 1.00 1.02 1.05 1.11